EHI
0 0 1 2 3 3 3 2 2 3 3 4 7 8 6 3 1 0 0 0 0 1 2 2 1 2 4 5 4 2 4 6 6 4 1 0 0 1 1 1 1 1 1
0 1 2 3 3 3 3 3 3 2 2 3 5 5 4 1 0 0 0 0 0 1 2 1 1 2 3 3 3 2 4 6 6 4 2 1 2 3 4 3 2 1 1
1 2 3 5 5 4 3 3 3 2 2 2 2 2 1 0 0 0 0 0 0 1 1 0 1 2 2 2 2 2 3 6 6 4 2 1 3 4 6 5 3 2 1
1 2 4 6 7 6 4 3 3 3 2 1 1 0 0 0 0 0 0 0 1 1 0 0 0 1 1 0 1 2 3 4 4 3 1 1 1 2 4 4 2 2 2
0 1 4 6 7 7 5 4 3 3 2 1 0 0 0 0 0 0 0 0 1 1 0 0 0 0 0 0 0 2 3 3 2 1 0 0 0 0 1 2 1 1 1
0 1 3 7 8 7 6 6 4 3 2 1 0 0 0 0 0 0 0 0 1 1 0 0 0 0 0 0 0 1 2 2 1 0 0 0 0 0 0 0 0 0 0
1 0 3 7 8 7 7 7 5 4 2 1 1 1 0 0 1 1 1 1 1 2 1 1 1 0 1 1 0 1 2 2 1 0 0 0 0 1 1 0 0 0 0
1 0 2 5 5 6 7 7 6 4 2 1 2 2 2 2 2 2 2 2 3 3 3 3 3 2 3 2 2 2 3 3 1 0 0 0 1 2 2 1 0 0 0
1 0 1 1 2 3 5 5 5 5 3 3 4 5 5 5 4 4 4 4 4 4 4 5 5 5 5 6 5 5 5 3 1 0 0 0 2 4 4 2 0 0 0
0 0 0 0 0 1 1 2 3 5 6 7 7 8 8 8 7 6 6 6 6 5 6 7 7 6 7 8 8 8 6 2 0 0 0 1 3 6 6 4 1 1 0
0 0 0 0 0 0 0 0 1 3 6 8 8 7 8 8 7 6 7 8 8 8 9 9 8 7 6 7 8 8 5 1 0 0 0 1 5 7 6 5 4 2 1
0 0 0 0 0 0 0 0 0 1 3 4 4 3 4 5 4 5 6 8 9 10 9 8 8 7 5 4 5 5 3 1 0 0 0 1 5 6 4 4 6 4 2
0 0 0 0 0 0 0 0 0 0 0 0 1 1 1 1 1 2 3 5 6 6 5 5 5 4 3 2 1 2 2 2 1 0 0 1 3 4 3 4 7 7 5
1 0 0 0 0 0 0 0 0 0 0 1 1 1 0 0 0 0 1 2 2 2 2 1 1 1 1 1 0 1 3 3 1 0 0 1 2 2 3 5 8 9 8
4 2 1 0 0 0 0 0 0 0 1 1 1 1 0 0 0 0 0 0 0 0 1 1 0 0 0 0 0 1 3 3 1 0 0 1 2 3 4 6 7 9 10
6 5 3 1 0 0 0 0 0 0 1 0 0 1 1 1 1 1 0 0 0 1 1 1 0 0 0 0 0 1 2 2 1 0 0 1 3 3 3 4 6 7 9
7 6 4 2 1 0 0 0 0 1 1 1 2 3 3 3 3 2 1 1 1 1 1 1 0 0 0 0 0 0 1 1 0 0 0 0 1 1 1 2 4 5 5
10 9 6 4 1 0 0 1 1 1 3 4 5 5 5 5 5 4 3 2 2 1 0 0 0 0 0 0 0 0 0 0 0 0 0 0 0 0 0 1 3 3 3
12 10 6 3 1 1 1 1 2 2 3 5 6 7 8 9 8 6 4 3 3 2 1 0 0 0 0 0 0 0 0 0 0 0 0 0 0 0 0 1 2 2 2
11 8 5 3 2 1 1 1 2 2 3 4 6 8 10 10 9 6 4 3 2 2 1 0 0 0 0 0 0 0 0 0 0 0 0 0 0 0 0 0 1 1 1
9 7 5 5 4 3 2 2 2 2 2 3 4 6 8 8 7 7 6 4 2 1 0 1 2 1 0 0 0 0 0 0 0 0 0 0 0 0 0 0 0 0 1
10 9 7 7 7 6 5 5 2 1 1 2 3 4 5 5 5 7 8 6 4 2 2 2 3 2 0 0 0 0 0 0 0 0 0 0 0 0 0 0 0 0 0
16 13 10 9 10 10 10 8 4 1 0 2 3 4 5 6 7 8 8 7 7 5 4 4 3 1 0 0 0 0 0 0 0 0 0 0 0 0 0 0 0 0 0
21 20 18 15 14 13 13 12 8 3 1 2 5 6 7 8 10 11 9 7 7 6 6 5 3 1 0 0 0 0 0 0 0 0 0 0 0 0 0 0 0 0 0
24 26 26 23 18 14 14 13 10 5 3 4 5 8 9 10 11 12 11 9 8 7 6 4 2 0 0 0 0 0 0 0 0 0 0 0 0 0 0 0 0 0 0
26 29 32 28 19 14 14 12 10 7 5 5 6 8 10 10 11 12 11 11 10 8 6 4 1 0 0 0 0 0 0 0 0 0 0 0 0 0 0 0 0 0 0
Wind_Speed
1 2 7 10 12 12 12 12 13 13 13 13 14 14 14 13 13 13 13 14 14 15 16 16 16 17 17 18 18 17 17 17 16 16 16 16 15 13 13 13 12 8 13
4 4 8 10 12 12 13 14 13 13 13 13 13 14 14 13 13 13 13 14 15 16 16 16 16 16 16 16 17 16 16 16 16 16 15 14 14 12 12 12 11 7 12
5 4 7 10 12 13 13 13 13 13 14 14 14 14 14 13 13 13 13 13 14 15 16 16 16 16 16 15 15 15 15 15 15 15 14 7 8 11 11 12 12 11 12
6 4 7 11 12 13 13 13 13 13 14 14 14 13 13 13 13 13 12 13 14 15 15 15 15 16 15 14 14 13 14 14 15 14 7 5 6 11 11 12 11 11 11
6 5 7 11 12 12 12 12 12 13 13 13 13 13 12 13 12 12 12 13 14 14 15 15 15 15 14 14 12 12 12 13 13 10 6 5 5 10 11 11 11 11 11
6 4 6 11 11 11 11 11 11 12 12 12 12 12 12 13 12 12 13 13 13 14 14 14 14 13 13 12 11 11 12 12 10 6 6 5 4 9 11 10 11 11 11
5 3 5 10 10 10 11 11 10 11 11 12 12 11 11 12 12 13 13 13 12 12 13 13 12 12 11 10 9 9 11 11 7 6 5 5 5 9 10 10 10 11 10
7 4 5 9 10 9 10 10 10 10 10 11 11 11 10 11 12 12 12 11 11 11 12 12 11 11 9 8 8 8 10 10 8 7 5 5 8 10 10 10 10 10 10
6 5 3 4 5 8 9 9 9 10 10 10 9 9 9 10 10 10 10 10 10 11 10 10 10 9 8 7 6 7 9 9 6 5 7 5 9 11 11 11 10 10 10
5 4 4 3 3 3 4 7 8 9 9 9 9 8 8 8 8 9 8 9 10 10 9 9 8 8 7 6 6 7 8 9 5 5 4 6 11 12 11 11 10 10 10
5 3 3 3 3 2 2 4 5 6 7 7 6 7 6 3 3 4 6 8 9 8 8 7 7 6 6 5 5 6 6 3 5 4 4 9 12 12 11 11 10 10 10
5 4 3 3 3 3 3 2 1 1 2 2 2 3 2 2 2 3 5 7 7 6 6 6 5 4 3 2 3 4 3 4 4 3 4 11 12 12 11 11 10 10 10
5 5 4 4 3 3 2 2 1 1 1 2 2 2 2 2 2 2 2 2 3 3 2 2 2 1 1 1 2 2 3 4 3 3 5 11 11 12 11 11 10 10 10
5 5 4 4 4 3 3 2 2 1 1 2 2 3 3 2 2 2 1 1 1 1 1 1 1 1 1 1 2 3 3 3 3 3 5 11 11 11 11 11 10 10 10
6 5 4 5 5 4 3 2 2 2 2 2 2 3 3 3 2 2 1 1 1 1 1 1 1 1 1 1 2 4 4 4 5 4 4 10 10 10 11 11 10 10 10
5 5 4 5 4 4 3 2 2 1 2 2 2 3 3 3 3 2 2 1 1 1 1 1 1 1 1 2 2 3 4 5 5 4 3 6 9 9 9 10 10 10 10
6 5 4 4 4 4 3 2 2 1 2 2 2 2 3 3 4 3 2 1 1 1 1 1 1 2 2 2 3 3 3 4 5 4 4 3 4 8 9 9 9 9 9
6 5 4 5 4 3 2 2 1 1 2 2 2 2 3 3 3 3 2 1 1 1 1 1 1 2 2 2 2 2 2 3 4 4 3 3 3 3 6 10 9 8 9
7 6 4 4 4 3 3 2 2 1 1 2 2 2 2 3 3 3 2 1 1 1 1 1 1 1 2 1 1 2 1 2 3 3 3 3 3 3 3 6 8 8 8
7 6 5 4 4 3 2 2 2 2 1 1 1 2 2 2 3 3 2 1 1 1 1 1 1 1 2 2 2 2 1 1 2 3 3 3 3 4 3 3 3 5 7
6 6 5 5 3 3 2 2 1 1 0 0 1 2 2 2 3 3 2 1 1 1 1 1 2 2 1 1 2 2 2 2 1 1 1 2 3 3 3 3 2 2 2
7 6 6 5 4 4 2 2 2 2 1 1 0 1 2 3 2 3 3 2 2 1 1 1 2 2 1 1 2 2 1 2 2 0 1 1 1 1 2 3 2 2 1
7 7 7 6 5 4 3 2 2 2 2 2 1 0 1 2 2 2 2 2 2 2 1 1 2 3 1 0 2 3 3 2 1 2 1 1 1 1 1 1 2 2 2
8 7 6 6 5 4 4 3 3 2 1 1 1 1 0 1 1 2 2 2 2 1 1 1 1 2 2 1 0 1 2 3 3 0 2 1 1 1 1 1 1 1 2
9 7 6 6 5 4 4 4 3 2 1 1 0 1 0 0 1 1 2 2 2 1 1 1 1 1 2 2 1 1 1 1 2 3 1 1 1 1 1 1 1 1 2
7 7 7 6 5 4 4 4 4 3 2 2 1 1 0 0 0 1 1 1 1 1 1 1 1 1 1 2 1 1 2 2 2 3 2 1 1 0 0 1 1 1 1
Wind_Direction
65 87 90 92 90 86 85 90 97 99 101 103 103 103 104 104 111 113 112 114 118 121 121 120 119 119 121 125 127 128 130 131 132 132 133 132 132 132 128 126 124 124 126
143 117 102 97 93 89 88 89 96 99 101 104 104 104 103 103 106 111 113 116 118 122 123 122 121 120 120 123 126 127 129 130 131 130 129 131 132 131 129 128 125 129 129
119 114 108 102 97 94 93 91 90 95 99 102 102 102 104 104 106 110 112 116 119 121 123 123 123 122 122 122 124 125 129 131 131 129 126 126 131 131 131 131 129 130 129
120 113 113 106 102 100 98 96 94 95 97 99 100 102 103 104 106 107 113 117 122 124 125 126 125 125 124 124 123 124 128 133 130 129 126 128 135 135 132 134 136 135 134
105 109 116 110 108 106 102 99 98 98 98 100 100 101 103 106 106 106 112 116 121 124 126 127 126 127 127 126 125 128 131 132 131 128 128 126 129 136 136 138 140 140 139
106 110 120 116 114 110 107 104 103 103 103 103 102 102 101 104 106 110 115 118 120 122 124 126 127 129 129 128 127 130 133 135 131 126 126 129 133 140 138 140 142 143 142
120 122 122 123 120 116 113 111 110 111 109 110 109 107 106 107 107 110 116 117 120 123 126 128 128 128 129 129 127 128 134 135 130 132 133 133 138 140 138 139 141 144 143
135 137 130 131 129 124 121 118 118 119 119 118 116 113 112 111 113 114 119 121 122 124 124 125 130 132 133 132 129 130 136 135 131 139 136 140 145 144 143 143 143 145 146
136 135 130 136 136 134 131 128 127 130 129 128 125 121 119 118 119 119 124 126 127 128 128 129 130 134 136 137 139 136 136 140 132 141 145 147 151 147 145 146 146 150 152
132 135 131 127 123 127 132 136 133 138 141 140 137 131 127 124 124 123 129 131 131 132 133 135 137 139 140 142 149 151 148 146 145 150 149 157 156 152 148 148 150 150 151
136 142 133 131 128 125 128 135 137 142 150 149 145 140 131 111 113 118 131 140 138 136 140 145 145 145 146 151 164 161 152 150 150 153 158 161 159 156 154 154 156 154 154
143 153 145 151 153 150 145 118 112 129 126 131 123 119 108 114 121 127 129 138 139 139 140 141 146 150 147 150 169 167 151 151 147 155 164 164 162 161 161 161 162 161 161
138 137 147 153 149 140 129 135 133 120 114 111 122 121 113 112 115 110 109 122 126 135 126 130 133 137 156 161 170 158 151 150 154 161 168 167 167 167 168 167 168 169 168
122 127 126 127 124 119 124 126 131 122 120 126 132 123 116 109 104 107 106 110 113 129 133 127 126 144 155 158 156 153 151 148 152 153 167 169 170 171 173 173 174 175 174
113 114 115 115 116 115 108 108 116 122 133 126 117 116 120 117 116 116 126 116 120 127 134 133 135 132 107 110 129 141 140 141 146 150 160 168 171 173 176 179 180 181 180
123 122 115 108 114 114 108 112 118 135 133 128 131 141 138 131 128 123 119 116 117 134 145 146 143 116 90 98 110 126 139 143 145 150 154 167 170 171 176 179 180 182 183
139 133 126 123 112 115 118 127 119 126 125 129 139 141 139 141 141 137 128 130 154 152 137 112 90 87 94 98 103 111 122 136 140 150 157 165 175 179 179 181 186 188 190
141 139 140 131 122 123 128 129 109 103 114 133 138 139 142 146 139 127 132 148 164 136 121 117 100 82 77 92 108 117 120 129 137 143 152 163 173 184 192 191 193 196 199
150 149 145 131 131 133 135 120 115 110 119 136 132 135 146 146 140 133 137 150 142 126 128 145 111 127 125 116 116 113 114 126 139 147 148 158 169 178 189 197 198 203 206
154 150 146 140 142 132 119 94 73 69 74 103 128 151 155 149 144 131 124 122 118 110 105 124 129 126 140 146 115 86 80 110 135 154 170 168 171 179 184 192 199 215 213
152 151 149 146 154 134 117 114 100 87 69 78 138 146 147 139 123 123 132 130 131 138 166 156 139 127 128 121 88 57 27 48 107 178 170 159 171 181 173 184 183 199 217
163 163 158 160 160 153 146 149 152 152 158 162 119 113 136 134 137 139 140 150 154 139 128 144 144 139 163 141 128 109 46 1 353 46 132 160 177 161 161 178 180 189 198
168 171 170 170 164 163 154 124 100 68 48 49 47 68 137 149 156 155 151 154 158 154 170 186 153 147 162 196 150 146 152 198 272 344 19 110 131 124 137 150 168 179 183
176 171 166 165 163 165 153 141 142 137 138 195 186 177 188 158 148 152 155 155 158 147 158 200 154 148 146 185 252 170 165 160 156 169 350 8 90 113 142 150 137 146 146
172 168 167 162 165 166 159 156 149 147 162 173 128 121 111 321 170 165 153 145 153 155 174 175 149 155 159 172 183 177 138 131 145 148 186 307 21 35 127 137 137 137 144
164 166 168 165 170 170 166 159 157 160 165 144 139 146 174 297 288 270 156 155 165 161 181 185 179 174 179 171 171 167 165 169 182 160 168 193 201 279 133 133 142 147 150